Location: Contre
(49.7477°N, 2.0963°E)
Time: 00:42:51
(UTC+00:00)

Envisat - Pass Details

Date: 04 March 2024
Orbit: 762 x 764 km, 98.3° (Epoch: 12 April)

Event Time Altitude Azimuth Distance (km) Brightness Sun altitude
Rises 01:48:43 0° 30° (NNE) 3,241 7.1 -41.2°
Reaches altitude 10° 01:52:22 10° 58° (ENE) 2,307 6.1 -40.9°
Enters shadow 01:53:47 13° 73° (ENE) 2,125 5.7 -40.8°
